TimeEDT,TemperatureF,Dew PointF,Humidity,Sea Level PressureIn,VisibilityMPH,Wind Direction,Wind SpeedMPH,Gust SpeedMPH,PrecipitationIn,Events,Conditions,WindDirDegrees,DateUTC
12:07 AM,55.4,53.6,94,30.10,3.0,SSE,3.5,-,N/A,,Clear,160,2012-10-05 04:07:00
12:54 AM,57.0,54.0,89,30.08,5.0,Calm,Calm,-,N/A,,Clear,0,2012-10-05 04:54:00
1:54 AM,55.0,54.0,96,30.09,4.0,Calm,Calm,-,N/A,,Clear,0,2012-10-05 05:54:00
2:54 AM,54.0,52.0,93,30.09,5.0,Calm,Calm,-,N/A,,Clear,0,2012-10-05 06:54:00
3:54 AM,53.1,52.0,96,30.09,4.0,Calm,Calm,-,N/A,,Clear,0,2012-10-05 07:54:00
4:32 AM,53.6,51.8,94,30.10,2.5,Calm,Calm,-,N/A,,Clear,0,2012-10-05 08:32:00
4:43 AM,53.6,51.8,94,30.10,3.0,Calm,Calm,-,N/A,,Clear,0,2012-10-05 08:43:00
4:54 AM,52.0,50.0,93,30.09,2.5,Calm,Calm,-,N/A,,Clear,0,2012-10-05 08:54:00
5:05 AM,53.6,51.8,94,30.10,4.0,Calm,Calm,-,N/A,,Clear,0,2012-10-05 09:05:00
5:54 AM,52.0,50.0,93,30.09,2.5,Calm,Calm,-,N/A,,Clear,0,2012-10-05 09:54:00
6:09 AM,53.6,50.0,88,30.10,5.0,Calm,Calm,-,N/A,,Clear,0,2012-10-05 10:09:00
6:22 AM,51.8,48.2,88,30.10,2.0,Calm,Calm,-,N/A,,Clear,0,2012-10-05 10:22:00
6:54 AM,51.1,48.9,92,30.08,3.0,Calm,Calm,-,N/A,,Clear,0,2012-10-05 10:54:00
7:54 AM,53.1,51.1,93,30.08,10.0,Calm,Calm,-,N/A,,Clear,0,2012-10-05 11:54:00
8:54 AM,57.0,54.0,89,30.10,5.0,Calm,Calm,-,N/A,,Clear,0,2012-10-05 12:54:00
9:54 AM,61.0,55.0,81,30.09,7.0,SW,4.6,-,N/A,,Partly Cloudy,220,2012-10-05 13:54:00
10:54 AM,64.9,55.0,70,30.08,10.0,WSW,9.2,-,N/A,,Clear,240,2012-10-05 14:54:00
11:54 AM,69.1,55.9,63,30.06,10.0,SSW,9.2,-,N/A,,Clear,210,2012-10-05 15:54:00
12:54 PM,72.0,57.0,59,30.03,10.0,SW,8.1,-,N/A,,Clear,230,2012-10-05 16:54:00
1:54 PM,75.0,57.0,53,30.00,10.0,WSW,8.1,-,N/A,,Clear,250,2012-10-05 17:54:00
2:54 PM,75.0,57.0,53,29.98,10.0,SW,9.2,-,N/A,,Clear,220,2012-10-05 18:54:00
3:54 PM,75.0,55.9,51,29.97,10.0,SW,12.7,16.1,N/A,,Clear,230,2012-10-05 19:54:00
4:54 PM,75.0,55.9,51,29.96,10.0,SSW,9.2,-,N/A,,Clear,210,2012-10-05 20:54:00
5:54 PM,73.0,57.0,57,29.96,10.0,SSW,6.9,-,N/A,,Clear,210,2012-10-05 21:54:00
6:54 PM,68.0,59.0,73,29.96,10.0,Calm,Calm,-,N/A,,Clear,0,2012-10-05 22:54:00
7:54 PM,69.1,57.0,65,29.95,10.0,South,4.6,-,N/A,,Clear,190,2012-10-05 23:54:00
8:54 PM,66.9,55.9,68,29.95,10.0,Calm,Calm,-,N/A,,Clear,0,2012-10-06 00:54:00
9:54 PM,66.0,55.9,70,29.94,10.0,SW,3.5,-,N/A,,Clear,230,2012-10-06 01:54:00
10:54 PM,60.1,55.9,86,29.93,7.0,Calm,Calm,-,N/A,,Clear,0,2012-10-06 02:54:00
11:54 PM,60.1,55.9,86,29.91,8.0,Calm,Calm,-,N/A,,Clear,0,2012-10-06 03:54:00